SOMP

Last updated on Sat Sep 02 2023 01:02:59 GMT+0100 (British Summer Time)

1 39134U 13015E 23244.50076700 .07588976 75853-5 12722-2 0 9999 2 39134 64.8225 14.9441 0017787 292.0188 67.9104 16.32294223575415

Satellite not in orbit